TimeCST,TemperatureF,Dew PointF,Humidity,Sea Level PressureIn,VisibilityMPH,Wind Direction,Wind SpeedMPH,Gust SpeedMPH,PrecipitationIn,Events,Conditions,WindDirDegrees,DateUTC
12:10 AM,44.1,19.4,37,30.13,10.0,ENE,18.4,25.3,N/A,,Clear,70,2014-01-23 06:10:00
12:30 AM,44.1,20.3,39,30.13,10.0,ENE,15.0,20.7,N/A,,Clear,60,2014-01-23 06:30:00
12:50 AM,43.7,20.7,40,30.15,10.0,ENE,16.1,24.2,N/A,,Clear,60,2014-01-23 06:50:00
1:10 AM,43.3,21.2,41,30.15,10.0,ENE,17.3,21.9,N/A,,Clear,70,2014-01-23 07:10:00
1:30 AM,43.2,21.2,42,30.17,10.0,NE,11.5,18.4,N/A,,Clear,50,2014-01-23 07:30:00
1:50 AM,43.0,20.8,41,30.18,10.0,ENE,15.0,21.9,N/A,,Clear,60,2014-01-23 07:50:00
2:10 AM,42.8,20.3,41,30.19,10.0,NE,15.0,21.9,N/A,,Clear,50,2014-01-23 08:10:00
2:30 AM,42.3,19.9,41,30.20,10.0,ENE,18.4,26.5,N/A,,Clear,60,2014-01-23 08:30:00
2:50 AM,41.9,19.4,41,30.20,10.0,ENE,16.1,27.6,N/A,,Clear,60,2014-01-23 08:50:00
3:10 AM,41.0,19.6,42,30.21,10.0,NE,13.8,20.7,N/A,,Clear,50,2014-01-23 09:10:00
3:30 AM,40.5,18.5,41,30.23,10.0,NE,19.6,27.6,N/A,,Clear,50,2014-01-23 09:30:00
3:50 AM,39.7,17.2,40,30.25,10.0,NE,16.1,26.5,N/A,,Clear,40,2014-01-23 09:50:00
4:10 AM,38.7,18.5,44,30.25,10.0,NE,16.1,-,N/A,,Clear,40,2014-01-23 10:10:00
4:30 AM,38.5,17.6,43,30.26,10.0,NE,12.7,20.7,N/A,,Clear,50,2014-01-23 10:30:00
4:50 AM,38.5,17.1,42,30.27,10.0,NE,16.1,21.9,N/A,,Clear,50,2014-01-23 10:50:00
5:10 AM,38.5,15.8,40,30.29,10.0,NE,13.8,24.2,N/A,,Clear,40,2014-01-23 11:10:00
5:30 AM,38.5,14.7,38,30.30,10.0,NE,16.1,20.7,N/A,,Clear,40,2014-01-23 11:30:00
5:50 AM,38.5,14.2,37,30.32,10.0,NE,18.4,21.9,N/A,,Clear,40,2014-01-23 11:50:00
6:10 AM,38.3,14.0,37,30.32,10.0,NE,21.9,27.6,N/A,,Clear,50,2014-01-23 12:10:00
6:30 AM,37.9,13.8,37,30.34,10.0,NE,16.1,26.5,N/A,,Clear,50,2014-01-23 12:30:00
6:50 AM,37.8,13.3,37,30.36,10.0,NE,18.4,31.1,N/A,,Clear,50,2014-01-23 12:50:00
7:10 AM,37.4,13.6,38,30.37,10.0,NE,20.7,25.3,N/A,,Clear,50,2014-01-23 13:10:00
7:30 AM,37.4,12.7,36,30.39,10.0,NE,15.0,31.1,N/A,,Clear,40,2014-01-23 13:30:00
7:50 AM,36.9,13.1,38,30.40,10.0,NE,15.0,27.6,N/A,,Clear,40,2014-01-23 13:50:00
8:10 AM,36.5,13.5,39,30.43,10.0,NNE,19.6,25.3,N/A,,Clear,30,2014-01-23 14:10:00
8:30 AM,35.6,14.7,42,30.44,10.0,NE,23.0,28.8,N/A,,Clear,40,2014-01-23 14:30:00
8:50 AM,35.4,15.8,45,30.46,10.0,NNE,20.7,27.6,N/A,,Clear,30,2014-01-23 14:50:00
9:10 AM,34.7,17.4,49,30.48,10.0,NNE,20.7,27.6,N/A,,Scattered Clouds,30,2014-01-23 15:10:00
9:30 AM,34.2,17.6,51,30.50,10.0,NNE,20.7,29.9,N/A,,Overcast,30,2014-01-23 15:30:00
9:50 AM,33.1,15.6,49,30.52,10.0,NNE,20.7,27.6,N/A,,Overcast,20,2014-01-23 15:50:00
10:10 AM,32.5,14.5,48,30.54,10.0,NNE,19.6,25.3,N/A,,Overcast,30,2014-01-23 16:10:00
10:30 AM,32.2,12.0,43,30.56,10.0,NNE,20.7,28.8,N/A,,Overcast,20,2014-01-23 16:30:00
10:50 AM,32.0,9.1,38,30.57,10.0,NNE,18.4,29.9,N/A,,Overcast,20,2014-01-23 16:50:00
11:10 AM,32.0,8.4,37,30.59,10.0,NNE,19.6,27.6,N/A,,Overcast,20,2014-01-23 17:10:00
11:30 AM,31.3,6.8,36,30.59,10.0,NNE,18.4,27.6,N/A,,Overcast,30,2014-01-23 17:30:00
11:50 AM,31.6,6.1,34,30.59,10.0,North,20.7,27.6,N/A,,Overcast,10,2014-01-23 17:50:00
12:10 PM,30.7,4.1,32,30.59,10.0,North,18.4,28.8,N/A,,Overcast,10,2014-01-23 18:10:00
12:30 PM,31.6,3.4,30,30.59,10.0,North,18.4,28.8,N/A,,Overcast,10,2014-01-23 18:30:00
12:50 PM,30.2,2.5,31,30.59,10.0,North,20.7,28.8,N/A,,Overcast,360,2014-01-23 18:50:00
1:10 PM,29.3,1.9,31,30.59,10.0,NNE,19.6,26.5,N/A,,Overcast,20,2014-01-23 19:10:00
1:30 PM,28.4,0.1,30,30.59,10.0,North,19.6,28.8,N/A,,Overcast,10,2014-01-23 19:30:00
1:50 PM,27.5,-1.1,29,30.60,10.0,NNE,23.0,28.8,N/A,,Overcast,20,2014-01-23 19:50:00
2:10 PM,27.7,-2.7,27,30.60,10.0,North,20.7,28.8,N/A,,Overcast,10,2014-01-23 20:10:00
2:30 PM,27.5,-4.5,25,30.60,10.0,NNE,19.6,25.3,N/A,,Overcast,20,2014-01-23 20:30:00
2:50 PM,27.7,-6.7,22,30.61,10.0,North,19.6,29.9,N/A,,Overcast,10,2014-01-23 20:50:00
3:10 PM,27.7,-6.0,23,30.61,10.0,North,18.4,28.8,N/A,,Overcast,10,2014-01-23 21:10:00
3:30 PM,27.3,-5.6,24,30.62,10.0,NNE,17.3,27.6,N/A,,Overcast,20,2014-01-23 21:30:00
3:50 PM,26.6,-5.8,24,30.64,10.0,North,18.4,23.0,N/A,,Overcast,360,2014-01-23 21:50:00
4:10 PM,26.6,-6.5,24,30.64,10.0,North,16.1,23.0,N/A,,Overcast,10,2014-01-23 22:10:00
4:30 PM,26.6,-7.4,23,30.64,10.0,NNE,15.0,23.0,N/A,,Overcast,30,2014-01-23 22:30:00
4:50 PM,26.1,-7.8,23,30.65,10.0,NNE,18.4,24.2,N/A,,Overcast,20,2014-01-23 22:50:00
5:10 PM,26.2,-8.0,22,30.66,10.0,NNE,17.3,21.9,N/A,,Overcast,30,2014-01-23 23:10:00
5:30 PM,26.1,-7.8,23,30.67,10.0,NNE,10.4,21.9,N/A,,Overcast,30,2014-01-23 23:30:00
5:50 PM,25.7,-8.5,22,30.68,10.0,North,10.4,20.7,N/A,,Overcast,10,2014-01-23 23:50:00
6:10 PM,26.1,-7.8,23,30.69,10.0,NNE,13.8,-,N/A,,Overcast,20,2014-01-24 00:10:00
6:30 PM,25.9,-7.6,23,30.69,10.0,NNE,12.7,19.6,N/A,,Overcast,20,2014-01-24 00:30:00
6:50 PM,26.4,-7.6,23,30.70,10.0,NNE,10.4,19.6,N/A,,Overcast,20,2014-01-24 00:50:00
7:10 PM,26.4,-7.4,23,30.71,10.0,NNE,15.0,21.9,N/A,,Overcast,20,2014-01-24 01:10:00
7:30 PM,26.4,-6.7,23,30.71,10.0,NNE,12.7,17.3,N/A,,Overcast,20,2014-01-24 01:30:00
7:50 PM,26.4,-6.7,23,30.72,10.0,NNE,13.8,19.6,N/A,,Overcast,20,2014-01-24 01:50:00
8:10 PM,26.4,-5.8,24,30.73,10.0,North,11.5,16.1,N/A,,Overcast,10,2014-01-24 02:10:00
8:30 PM,26.4,-6.2,24,30.74,10.0,NNE,9.2,19.6,N/A,,Overcast,20,2014-01-24 02:30:00
8:50 PM,26.1,-6.3,24,30.74,10.0,North,11.5,17.3,N/A,,Overcast,10,2014-01-24 02:50:00
9:10 PM,25.7,-6.2,25,30.75,10.0,North,12.7,19.6,N/A,,Overcast,10,2014-01-24 03:10:00
9:30 PM,25.3,-6.3,25,30.76,10.0,North,11.5,19.6,N/A,,Overcast,10,2014-01-24 03:30:00
9:50 PM,24.8,-6.5,25,30.76,10.0,North,10.4,18.4,N/A,,Overcast,10,2014-01-24 03:50:00
10:10 PM,24.6,-6.0,26,30.76,10.0,North,12.7,18.4,N/A,,Overcast,360,2014-01-24 04:10:00
10:30 PM,23.9,-6.0,27,30.76,10.0,NNE,12.7,18.4,N/A,,Overcast,20,2014-01-24 04:30:00
10:50 PM,23.2,-6.5,27,30.76,10.0,North,12.7,19.6,N/A,,Overcast,10,2014-01-24 04:50:00
11:10 PM,23.0,-6.3,27,30.76,10.0,North,12.7,-,N/A,,Overcast,10,2014-01-24 05:10:00
11:30 PM,22.8,-6.7,27,30.76,10.0,NNE,12.7,18.4,N/A,,Overcast,30,2014-01-24 05:30:00
11:50 PM,22.6,-6.3,28,30.76,10.0,NNE,10.4,-,N/A,,Overcast,20,2014-01-24 05:50:00